Location: Bixby Knolls
(33.8356°N, 118.1767°W)
Time: 06:24:54
(UTC+00:00)

Daily predictions for brighter satellites

Satellite Brightness Start Highest point End
(mag) Time Altitude Azimuth Time Altitude Azimuth Time Altitude Azimuth
Cosmos 1503 Rocket 4.5 12:13:42 56° E 12:13:42 56° E 12:18:31 10° SSE
Cosmos 1697 Rocket 2.6 12:31:20 60° N 12:32:23 83° ENE 12:38:01 10° SSE
IRS-1D 4.2 12:27:54 10° NNE 12:32:47 52° E 12:37:44 10° S
SJ-11-01 4.3 12:29:50 10° NNE 12:34:32 77° ESE 12:39:11 10° S
Cosmos 1777 Rocket 4.0 12:39:30 61° SW 12:39:30 61° SW 12:44:02 10° S
Meteor 2-12 Rocket 4.3 12:34:37 10° SSW 12:40:42 68° W 12:46:48 10° N
USA 238 DEB 4.0 12:41:44 38° NW 12:45:03 72° WSW 12:53:13 10° SSE
USA 238 4.0 12:41:47 38° NW 12:45:10 73° WSW 12:53:19 10° SSE
Cosmos 468 Rocket 3.8 12:40:23 10° SSW 12:45:38 78° WNW 12:50:54 10° NNE
Cosmos 1782 3.7 12:48:38 35° S 12:48:38 35° S 12:50:47 10° S
Atlas Centaur 2 4.1 12:51:30 23° SW 12:53:58 27° SSW 13:00:29 10° SSE
Cosmos 1536 Rocket 3.4 12:51:54 10° S 12:56:19 80° W 13:00:46 10° N
CZ-4 R/B 3.7 12:52:40 10° NNE 12:57:18 82° ESE 13:01:54 10° S
Cosmos 2082 Rocket 2.0 12:55:34 10° SSW 13:01:11 72° WNW 13:06:48 10° NNE
OPS 6432 4.2 13:03:45 80° SW 13:03:45 80° SW 13:07:08 10° SSE
H-2A R/B 3.7 13:04:50 17° SSW 13:06:17 22° S 13:12:18 10° SE
FengYun 1-2 T 4.4 13:00:57 10° N 13:06:23 49° WNW 13:11:48 10° SW
SKYMED 2 3.8 13:03:56 10° SSE 13:08:14 70° ENE 13:12:33 10° N
Cosmos 1634 Rocket 4.5 13:10:36 29° NW 13:12:28 35° W 13:17:58 10° SSW
Cosmos 2098 Rocket 3.7 13:10:04 10° NNW 13:15:43 62° W 13:21:24 10° S
SL-8 R/B 4.4 13:17:15 23° NNW 13:19:55 46° NNE 13:24:29 10° ESE
Centaur D-1AR AC-48 4.4 12:57:45 10° WSW 13:20:35 39° SSW 13:25:43 10° SE
Tiangong -0.4 13:21:08 20° N 13:21:33 21° N 13:24:06 10° ENE
SL-24 R/B 4.4 13:18:02 10° N 13:23:22 60° WNW 13:27:59 10° SSW
Cosmos 372 Rocket 4.5 13:19:05 10° N 13:24:05 59° ENE 13:29:04 10° SSE
Cosmos 990 Rocket 4.2 13:24:31 19° NW 13:27:58 46° WSW 13:32:56 10° S
Cosmos 2369 4.2 13:25:37 10° NNW 13:31:15 61° ENE 13:36:49 10° SSE
SL-24 R/B - RUBIN 2 3.7 13:28:17 14° NNW 13:32:02 70° ENE 13:36:26 10° SE
Cosmos 1346 Rocket 2.8 13:28:32 10° SSW 13:32:05 47° W 13:35:40 10° N
Cosmos 1980 Rocket 2.1 13:27:35 11° NNW 13:32:57 68° WSW 13:38:28 10° S
COSMO-SKYMED 1 2.3 13:35:50 10° S 13:39:56 73° W 13:44:02 10° NNW
USA 267 4.1 13:33:48 10° NE 13:40:09 53° SE 13:46:28 10° SSW
CZ-3C R/B 3.7 13:37:12 10° SW 13:41:32 31° SSE 13:59:40 10° E
Cosmos 1606 Rocket 3.5 13:41:19 10° NNW 13:45:43 65° W 13:50:03 10° S
Cosmos 2333 Rocket 4.3 13:43:42 10° N 13:48:13 23° ENE 13:52:43 10° ESE
BREEZE M DEB (TANK) 1.6 13:55:43 11° WSW 13:57:42 41° NNW 14:00:29 10° NE
Cosmos 1484 Rocket 2.8 13:55:26 10° N 13:58:40 41° WNW 14:01:51 10° SW
USA 59 Rocket 0.8 13:56:26 10° NNW 14:00:21 55° ENE 14:05:48 10° SE
Cosmos 841 Rocket 4.2 13:56:00 10° SW 14:00:36 32° WNW 14:05:16 10° N
Cosmos 2026 Rocket 3.9 13:54:49 10° SSW 14:00:46 61° W 14:06:47 10° N
Meteor 2-3 Rocket 4.0 13:58:15 10° SSW 14:03:44 46° WNW 14:09:14 10° N
Cosmos 2360 Rocket 4.4 14:01:04 10° N 14:05:16 21° ENE 14:09:24 10° ESE
Cosmos 1933 4.3 14:06:43 10° NW 14:09:50 24° W 14:12:55 10° SW
COSMOS 2455 2.9 14:06:41 10° NNW 14:12:42 77° WSW 14:18:41 10° SSE
Cosmos 1726 Rocket 3.9 14:09:49 10° NNW 14:13:54 40° W 14:17:51 10° SSW
CZ-2D R/B 2.9 14:14:18 10° NNE 14:17:28 77° ESE 14:20:37 10° S
Delta 2 Rocket 2.5 14:14:42 10° WNW 14:17:43 71° N 14:20:40 10° E
NOSS 2-1 (C) 3.9 14:15:56 10° NNW 14:19:54 73° ENE 14:25:25 10° SE
Cosmos 1092 Rocket 4.3 14:14:39 10° SSW 14:20:42 48° W 14:26:45 10° N
Cosmos 1626 Rocket 3.7 14:17:01 10° S 14:21:26 85° E 14:25:52 10° N
Cosmos 1898 Rocket 3.9 14:17:01 10° NNW 14:21:58 44° WSW 14:26:56 10° S
